Weslaco, TX

1:49 PM CST on February 14, 2016 (GMT -0600)
Weslaco

Weather History for KT65 - April, 2013

Change the Weather History Date:

Friday, April 12, 2013

  Actual Average (KMFE) Record (KMFE)
Temperature  
Mean Temperature 68 °F 76 °F  
Max Temperature 85 °F 87 °F 101 °F (1965)
Min Temperature 53 °F 65 °F 47 °F (1949)
Degree Days  
Heating Degree Days 0 0  
Month to date heating degree days 3  
Since 1 July heating degree days 574  
Cooling Degree Days 4 11  
Month to date cooling degree days 126  
Year to date cooling degree days 503  
Growing Degree Days 18 (Base 50)    
Moisture  
Dew Point 55 °F    
Average Humidity 64    
Maximum Humidity 88    
Minimum Humidity 34    
Precipitation  
Precipitation 0.00 in 0.04 in 1.08 in (1954)
Month to date precipitation 0.39  
Year to date precipitation 3.58  
Sea Level Pressure  
Sea Level Pressure 29.89 in    
Wind  
Wind Speed 5 mph (ESE)    
Max Wind Speed 16 mph    
Max Gust Speed 26 mph    
Visibility 10 miles    
Events      
T = Trace of Precipitation, MM = Missing Value Source: NWS Daily Summary

Daily Weather History Graph

Daily Weather History Graph

Search for Another Location

Airport or City:

Trip Planner

Search our weather history database for the weather conditions in past years. The results will help you decide how hot, cold, wet, or windy it might be!

Date:

Astronomy

Apr. 12, 2013 Rise Set
Actual Time 7:11 AM CDT 7:54 PM CDT
Civil Twilight 6:47 AM CDT 8:17 PM CDT
Nautical Twilight 6:20 AM CDT 8:45 PM CDT
Astronomical Twilight 5:52 AM CDT 9:13 PM CDT
Moon 8:34 AM CDT (4/12) 10:11 PM CDT (4/12)
Length of Visible Light 13h 29m
Length of Day
12h 42m
Waxing Crescent, 5% of the Moon is Illuminated
Apr 12
Waxing Crescent
Apr 18
First Quarter
Apr 25
Full
May 2
Last Quarter
May 9
New

Hourly Weather History & Observations

Time (CDT) Temp. Heat Index Dew Point Humidity Pressure Visibility Wind Dir Wind Speed Gust Speed Precip Events Conditions
12:15 AM 59.2 °F - 51.1 °F 74% 29.90 in 10.0 mi Calm Calm - N/A   Clear
12:35 AM 59.0 °F - 51.1 °F 75% 29.89 in 10.0 mi SE 3.5 mph - N/A   Clear
12:55 AM 58.8 °F - 51.3 °F 76% 29.89 in 10.0 mi Calm Calm - N/A   Clear
1:15 AM 57.9 °F - 50.5 °F 76% 29.89 in 10.0 mi Calm Calm - N/A   Clear
1:35 AM 57.0 °F - 50.5 °F 79% 29.89 in 10.0 mi Calm Calm - N/A   Clear
1:55 AM 58.1 °F - 51.3 °F 78% 29.88 in 10.0 mi Calm Calm - N/A   Clear
2:15 AM 56.3 °F - 50.2 °F 80% 29.88 in 10.0 mi Calm Calm - N/A   Clear
2:35 AM 57.2 °F - 51.3 °F 81% 29.87 in 10.0 mi Calm Calm - N/A   Clear
2:55 AM 55.9 °F - 50.2 °F 81% 29.88 in 10.0 mi Calm Calm - N/A   Clear
3:15 AM 55.4 °F - 49.8 °F 81% 29.88 in 10.0 mi Calm Calm - N/A   Clear
3:35 AM 55.9 °F - 50.2 °F 81% 29.88 in 10.0 mi Calm Calm - N/A   Clear
3:55 AM 55.9 °F - 50.0 °F 80% 29.88 in 10.0 mi Calm Calm - N/A   Clear
4:15 AM 54.7 °F - 50.4 °F 85% 29.88 in 10.0 mi Calm Calm - N/A   Clear
4:35 AM 53.8 °F - 50.0 °F 87% 29.88 in 10.0 mi Calm Calm - N/A   Clear
4:55 AM 54.3 °F - 50.2 °F 86% 29.88 in 10.0 mi ENE 3.5 mph - N/A   Clear
5:15 AM 53.6 °F - 49.8 °F 87% 29.88 in 10.0 mi ENE 3.5 mph - N/A   Clear
5:35 AM 53.8 °F - 49.6 °F 86% 29.88 in 10.0 mi ENE 3.5 mph - N/A   Clear
5:55 AM 54.7 °F - 51.1 °F 88% 29.88 in 10.0 mi Calm Calm - N/A   Mostly Cloudy
6:15 AM 56.3 °F - 52.3 °F 87% 29.88 in 10.0 mi Calm Calm - N/A   Overcast
6:35 AM 57.6 °F - 53.4 °F 86% 29.88 in 10.0 mi ENE 4.6 mph - N/A   Overcast
6:55 AM 58.3 °F - 53.8 °F 85% 29.89 in 10.0 mi NE 4.6 mph - N/A   Mostly Cloudy
7:15 AM 57.2 °F - 53.2 °F 87% 29.89 in 10.0 mi ENE 5.8 mph - N/A   Scattered Clouds
7:35 AM 57.2 °F - 53.1 °F 86% 29.89 in 10.0 mi Calm Calm - N/A   Clear
7:55 AM 58.1 °F - 53.8 °F 86% 29.91 in 10.0 mi East 4.6 mph - N/A   Clear
8:15 AM 59.9 °F - 55.0 °F 84% 29.91 in 10.0 mi East 5.8 mph - N/A   Clear
8:35 AM 62.8 °F - 57.0 °F 81% 29.92 in 10.0 mi East 4.6 mph - N/A   Clear
8:55 AM 65.8 °F - 58.1 °F 76% 29.92 in 10.0 mi East 6.9 mph - N/A   Clear
9:15 AM 68.4 °F - 58.8 °F 71% 29.91 in 10.0 mi East 8.1 mph - N/A   Clear
9:55 AM 71.8 °F - 58.5 °F 63% 29.93 in 10.0 mi ESE 5.8 mph - N/A   Clear
10:15 AM 73.0 °F - 58.6 °F 61% 29.93 in 10.0 mi ESE 6.9 mph - N/A   Clear
10:35 AM 74.7 °F - 58.6 °F 57% 29.93 in 10.0 mi SE 5.8 mph - N/A   Scattered Clouds
10:55 AM 74.7 °F - 57.9 °F 56% 29.93 in 10.0 mi ESE 6.9 mph - N/A   Scattered Clouds
11:15 AM 75.4 °F - 57.9 °F 54% 29.94 in 10.0 mi ESE 5.8 mph - N/A   Scattered Clouds
11:35 AM 76.5 °F - 57.0 °F 51% 29.94 in 10.0 mi ESE 4.6 mph - N/A   Scattered Clouds
11:55 AM 78.1 °F - 57.7 °F 49% 29.93 in 10.0 mi ESE 3.5 mph - N/A   Scattered Clouds
12:15 PM 79.5 °F - 56.5 °F 45% 29.92 in 10.0 mi East 5.8 mph - N/A   Scattered Clouds
12:35 PM 81.0 °F 80.7 °F 55.4 °F 41% 29.91 in 10.0 mi East 10.4 mph 16.1 mph N/A   Clear
12:55 PM 82.0 °F 81.5 °F 55.4 °F 40% 29.91 in 10.0 mi ESE 10.4 mph - N/A   Clear
1:15 PM 83.5 °F 82.2 °F 54.0 °F 36% 29.90 in 10.0 mi East 9.2 mph 17.3 mph N/A   Clear
1:35 PM 84.2 °F 82.8 °F 54.1 °F 35% 29.89 in 10.0 mi ENE 11.5 mph 18.4 mph N/A   Clear
1:55 PM 83.3 °F 82.2 °F 54.7 °F 37% 29.88 in 10.0 mi ESE 11.5 mph 21.9 mph N/A   Clear
2:15 PM 84.4 °F 82.9 °F 54.0 °F 35% 29.88 in 10.0 mi ESE 8.1 mph 17.3 mph N/A   Clear
2:35 PM 84.7 °F 83.1 °F 53.8 °F 34% 29.87 in 10.0 mi ESE 13.8 mph 19.6 mph N/A   Clear
2:55 PM 81.5 °F 80.8 °F 53.8 °F 38% 29.86 in 10.0 mi ESE 8.1 mph 18.4 mph N/A   Clear
3:15 PM 84.0 °F 82.5 °F 53.1 °F 34% 29.86 in 10.0 mi ESE 8.1 mph 18.4 mph N/A   Clear
3:35 PM 83.8 °F 82.4 °F 53.6 °F 35% 29.85 in 10.0 mi East 13.8 mph 20.7 mph N/A   Clear
3:55 PM 82.6 °F 81.6 °F 54.0 °F 37% 29.84 in 10.0 mi ESE 10.4 mph 21.9 mph N/A   Clear
4:15 PM 82.6 °F 81.7 °F 54.9 °F 38% 29.84 in 10.0 mi East 15.0 mph 21.9 mph N/A   Clear
4:35 PM 81.9 °F 81.3 °F 55.6 °F 40% 29.83 in 10.0 mi ESE 13.8 mph 25.3 mph N/A   Scattered Clouds
4:55 PM 80.4 °F 80.5 °F 55.9 °F 43% 29.83 in 10.0 mi ESE 15.0 mph 23.0 mph N/A   Clear
5:15 PM 80.8 °F 80.7 °F 55.9 °F 42% 29.83 in 10.0 mi East 15.0 mph 24.2 mph N/A   Clear
5:35 PM 80.1 °F 80.3 °F 56.1 °F 44% 29.83 in 10.0 mi East 15.0 mph 26.5 mph N/A   Clear
5:55 PM 79.7 °F - 56.3 °F 44% 29.83 in 10.0 mi ESE 16.1 mph 21.9 mph N/A   Clear
6:15 PM 79.0 °F - 56.1 °F 45% 29.84 in 10.0 mi East 16.1 mph 19.6 mph N/A   Clear
6:35 PM 77.9 °F - 56.5 °F 48% 29.84 in 10.0 mi East 13.8 mph 21.9 mph N/A   Clear
6:55 PM 76.1 °F - 56.5 °F 50% 29.84 in 10.0 mi ESE 15.0 mph 20.7 mph N/A   Clear
7:15 PM 75.2 °F - 56.8 °F 53% 29.85 in 10.0 mi ESE 12.7 mph 19.6 mph N/A   Scattered Clouds
7:35 PM 74.3 °F - 57.2 °F 55% 29.86 in 10.0 mi ESE 11.5 mph 19.6 mph N/A   Scattered Clouds
7:55 PM 73.4 °F - 57.4 °F 57% 29.86 in 10.0 mi East 12.7 mph 19.6 mph N/A   Scattered Clouds
8:15 PM 72.5 °F - 57.6 °F 59% 29.87 in 10.0 mi ESE 11.5 mph 19.6 mph N/A   Scattered Clouds
8:35 PM 71.8 °F - 57.7 °F 61% 29.88 in 10.0 mi ESE 11.5 mph 17.3 mph N/A   Scattered Clouds
8:55 PM 71.4 °F - 58.1 °F 63% 29.88 in 10.0 mi East 11.5 mph 16.1 mph N/A   Scattered Clouds
9:15 PM 70.7 °F - 58.6 °F 66% 29.89 in 10.0 mi ESE 9.2 mph 16.1 mph N/A   Scattered Clouds
9:35 PM 70.3 °F - 59.0 °F 67% 29.89 in 10.0 mi ESE 9.2 mph - N/A   Scattered Clouds
9:55 PM 70.0 °F - 59.0 °F 68% 29.91 in 10.0 mi ESE 10.4 mph - N/A   Clear
10:15 PM 69.8 °F - 59.2 °F 69% 29.91 in 10.0 mi ESE 6.9 mph - N/A   Clear
10:35 PM 69.3 °F - 59.5 °F 71% 29.91 in 10.0 mi ESE 4.6 mph - N/A   Clear
10:55 PM 69.1 °F - 60.1 °F 73% 29.92 in 10.0 mi ESE 5.8 mph - N/A   Scattered Clouds
11:15 PM 68.9 °F - 60.3 °F 74% 29.93 in 10.0 mi ESE 6.9 mph - N/A   Clear
11:35 PM 68.4 °F - 60.3 °F 75% 29.92 in 10.0 mi ESE 6.9 mph - N/A   Scattered Clouds
11:55 PM 68.0 °F - 60.3 °F 76% 29.93 in 10.0 mi ESE 6.9 mph - N/A   Scattered Clouds